Location: Altmatt
(47.1333°N, 8.7000°E)
Time: 18:56:42
(UTC+00:00)

COSMOS 2455 - Pass Details

Date: 13 July 2020
Orbit: 898 x 911 km, 67.1° (Epoch: 12 August)

Event Time Altitude Azimuth Distance (km) Brightness Sun altitude
Rises 22:12:59 0° 323° (NW) 3,552 7.3 -19.0°
Reaches altitude 10° 22:15:33 10° 320° (NW) 2,607 6.3 -19.1°
Maximum altitude 22:21:25 55° 244° (WSW) 1,086 3.2 -19.4°
Enters shadow 22:23:56 33° 184° (S) 1,484 3.5 -19.6°
